Location: São Paulo
(23.5507°S, 46.6334°W)
Time: 13:17:14
(UTC-03:00)

Tiros 1 - Pass Details

Date: 15 February 2026
Orbit: 618 x 649 km, 48.4° (Epoch: 11 March)

Event Time Altitude Azimuth Distance (km) Brightness Sun altitude
Rises 19:36:47 0° 323° (NW) 2,901 10.8 -11.9°
Reaches altitude 10° 19:39:05 10° 325° (NW) 2,005 9.9 -12.4°
Maximum altitude 19:43:41 68° 47° (NE) 687 7.0 -13.4°
Drops below altitude 10° 19:48:22 10° 130° (SE) 2,044 9.4 -14.4°
Sets 19:50:44 0° 132° (SE) 2,964 10.3 -14.9°
Enters shadow 19:50:50 - 132° (SE) 3,005 10.3 -14.9°
